Regional Weather Roundup
Issued by NWS Memphis, TN

Home | Current Version | Previous Version | Text Only | Print | Product List | Glossary On
Versions: 1 2 3 4 5 6 7 8 9 10 11 12 13 14 15 16 17 18 19 20 21 22 23 24 25 26 27 28 29 30 31 32 33 34 35 36 37 38 39 40 41 42 43 44 45 46 47 48 49 50
560
ASUS44 KMEG 280210
RWRMEG
MEMPHIS CWA HOURLY WEATHER ROUNDUP
NATIONAL WEATHER SERVICE MEMPHIS TN
900 PM CDT MON MAR 27 2017

...WEST TENNESSEE...

CITY           SKY/WX    TMP DP  RH WIND       PRES   REMARKS
MEMPHIS INTL   PTCLDY    66  60  81 N5        29.85R
NWS MEMPHIS      N/A     65 N/A N/A MISG        N/A
JACKSON        MOCLDY    62  61  96 N3        29.86R
SOMERVILLE     MOCLDY    63  59  88 N5        29.85R
BOLIVAR        CLOUDY    61  59  94 CALM      29.85R
SAVANNAH       CLOUDY    61  61 100 CALM      29.83F
DYERSBURG      FOG       57  55  94 CALM      29.87R VSB 3/4
PARIS          MOCLDY    52  52 100 CALM      29.86R VSB 1/2
HUNTINGDON     CLOUDY    57  57 100 CALM      29.86R FOG


...EASTERN ARKANSAS...

CITY           SKY/WX    TMP DP  RH WIND       PRES   REMARKS
JONESBORO      CLEAR     60  56  86 CALM      29.86R
WEST MEMPHIS   CLOUDY    66  62  87 NE8       29.84R
BATESVILLE     PTCLDY    64  54  68 NW5       29.89R
NEWPORT        CLEAR     63  59  87 N3        29.87R
WALNUT RIDGE   CLEAR     63  54  72 N6        29.87R
BLYTHEVILLE    CLEAR     59  58  96 NE3       29.86R
SEARCY         MOCLDY    68  59  73 NW3       29.89R
STUTTGART      PTCLDY    68  54  60 NW9       29.86R
PINE BLUFF     CLEAR     72  59  63 W5        29.85R
MONTICELLO     CLEAR     72  61  68 W5        29.85R


...NORTH MISSISSIPPI...

CITY           SKY/WX    TMP DP  RH WIND       PRES   REMARKS
TUPELO         CLEAR     72  61  68 S8        29.84R
OXFORD         CLEAR     72  63  73 SW9       29.85R
BATESVILLE     CLEAR     73  64  72 SW12      29.83R
TUNICA         CLEAR     70  59  68 W6        29.84R
CLARKSDALE     MOCLDY    73  63  68 CALM      29.84R
CORINTH        DRIZZLE   64  61  88 SW5       29.85R
GREENWOOD      PTCLDY    71  64  78 S6        29.85R
COLUMBUS       PTCLDY    70  63  79 S10       29.87R
STARKVILLE     CLEAR     68  61  77 S6        29.90R
GOLDEN TRIANGL PTCLDY    68  57  68 S9        29.85R


...SOUTHEAST MISSOURI...

CITY           SKY/WX    TMP DP  RH WIND       PRES   REMARKS
KENNETT        CLOUDY    61  59  94 CALM      29.85R
MALDEN         CLEAR     61  57  88 W3        29.88R
WEST PLAINS    PTCLDY    56  51  84 W6        29.92R
POPLAR BLUFF   CLEAR     59  57  93 CALM      29.86R
CAPE GIRARDEAU MOCLDY    59  55  87 N6        29.87R


...NORTHWEST ALABAMA...

CITY           SKY/WX    TMP DP  RH WIND       PRES   REMARKS
MUSCLE SHOALS  CLOUDY    65  60  84 MISG      29.87R THUNDER


...MIDDLE TENNESSEE...

CITY           SKY/WX    TMP DP  RH WIND       PRES   REMARKS
NASHVILLE      CLOUDY    59  57  93 NE6       29.87R
CLARKSVILLE    CLOUDY    57  55  93 NW5       29.84R
COLUMBIA       PTCLDY   N/A N/A N/A S9        29.84R


...WESTERN KENTUCKY...

CITY           SKY/WX    TMP DP  RH WIND       PRES   REMARKS
PADUCAH        CLEAR     53  50  89 SW3       29.85R
FORT CAMPBELL  MOCLDY    57  57 100 NW5       29.85R


...CENTRAL ARKANSAS...

CITY           SKY/WX    TMP DP  RH WIND       PRES   REMARKS
LITTLE ROCK    PTCLDY    66  57  72 NW14      29.88R


SKY/WX REPORTED AS FAIR MEANS FEW OR NO CLOUDS BELOW
12 THOUSAND FEET.





USA.gov is the U.S. government's official web portal to all federal, state and local government web resources and services.